Hors Challenge

Le Trail Séries - Dinant 10.00 km

Du 6 mars au 14 mars 2021

Le Classement original se trouve sur : http://www.chronorace.be
 
LE TRAIL SÉRIES - DINANT
DISTANCE : 10.00 km
Du 6 mars au 14 mars 2021
 
Place Dos NOM Catégorie Pl/cat temps temps/km Vitesse
1 806 GOUBAU JOHAN SH 1 00:40:09 04:01 14.94
2 515 RAEMACKERS CÉDRIC SH 2 00:41:52 04:11 14.33
3 1074 LAMBOTTE WILLIAM SH 3 00:42:00 04:12 14.28
4 1008 HEIRBAUT ARNE SH 4 00:43:08 04:19 13.91
5 590 HOWET FLORIAN SH 5 00:44:09 04:25 13.59
6 420 WATTIER DAVY V1 1 00:44:42 04:28 13.42
7 1141 WANET JÉRÉMY SH 6 00:46:20 04:38 12.95
8 481 VERBEKE MARTIN SH 7 00:47:08 04:43 12.73
9 864 TILMANT GRÉGOIRE SH 8 00:47:15 04:44 12.70
10 460 FABRY KIKIANO SH 9 00:47:37 04:46 12.60
11 354 GREGOIRE VALENTIN SH 10 00:48:34 04:51 12.35
12 1152 BASTIN VALERY SH 11 00:48:40 04:52 12.33
13 372 ALEXANDRE PAIROUX SH 12 00:50:39 05:04 11.84
14 1075 DELHAUTEUR AUDRIC SH 13 00:53:07 05:19 11.29
15 1145 BEAUJEAN GAUTIER V1 2 00:53:12 05:19 11.28
16 399 FINNÉ CLÉMENT SH 14 00:53:15 05:20 11.26
17 1151 FRANÇOIS JÉROME SH 15 00:54:31 05:27 11.00
18 1146 RENARD GIL SH 16 00:54:50 05:29 10.94
19 249 HASTIR FABRICE V2 1 00:54:53 05:29 10.93
20 12 EMBRECHTS LUCAS SH 17 00:54:58 05:30 10.91
21 900 MELSENS KRISTOF V1 3 00:55:24 05:32 10.83
22 779 DELERS THOMAS SH 18 00:55:27 05:33 10.82
23 148 ALLARD HENRI SH 19 00:55:38 05:34 10.78
24 38 LAMBERT ANTOINE SH 20 00:55:46 05:35 10.76
25 579 HUBIN FRANÇOIS SH 21 00:56:52 05:41 10.55
26 373 MINON POL SH 22 00:57:10 05:43 10.49
27 808 RAUSIN NICO SH 23 00:57:23 05:44 10.45
28 487 HÉBETTE HAROLD SH 24 00:57:51 05:47 10.37
29 135 XXX xxx   00:57:56 05:48 10.35
30 407 BERTRAND DAVID V1 4 00:57:56 05:48 10.35
31 706 PIRET ULRICK SH 25 00:58:20 05:50 10.28
32 723 LELEUX GASPARD SH 26 00:59:12 05:55 10.13
33 486 MALDAGUE JULIAN SH 27 00:59:21 05:56 10.11
34 293 MARION NICOLAS SH 28 00:59:38 05:58 10.06
35 1004 DEKONINCK AURÉLIEN SH 29 00:59:42 05:58 10.05
36 1003 HAQUENNE DAMIEN SH 30 00:59:46 05:59 10.04
37 745 ROQUET RAPHAËL V1 5 00:59:47 05:59 10.03
38 812 DE THIER FÉLIX SH 31 00:59:54 05:59 10.01
39 297 HERMAN DAVID V1 6 01:00:11 06:01 9.97
40 813 DELOBBE JUSTIN SH 32 01:00:41 06:04 9.88
41 809 XXX xxx   01:00:59 06:06 9.84
42 513 LESSIRE CYRIL SH 33 01:01:03 06:06 9.83
43 642 WILMOTTE NICOLAS V1 7 01:01:29 06:09 9.76
44 200 THIENPONT JURGEN V2 2 01:01:50 06:11 9.70
45 2 DEMOULIN TOM SH 34 01:01:57 06:12 9.68
46 717 LAHAUT STEVE SH 35 01:02:01 06:12 9.67
47 702 VANACKERE GILLES SH 36 01:02:20 06:14 9.62
48 85 NAGY DOROTTYA SD 1 01:02:49 06:17 9.55
49 727 REPUSSEAU PIERRE SH 37 01:03:18 06:20 9.48
50 961 PIRLOT JOFFROY SH 38 01:03:41 06:22 9.42
51 811 JADOUL ALEXANDRE SH 39 01:03:43 06:22 9.41
52 347 BOURSOIT STÉPHANE V1 8 01:03:53 06:23 9.39
53 214 LÉCHAUDÉ LUDOVIC SH 40 01:04:07 06:25 9.36
54 589 DOUMONT NATHALIE SD 2 01:04:15 06:26 9.34
55 807 PIRON HÉLÈNE SD 3 01:04:53 06:29 9.24
56 329 PESESSE MARC V1 9 01:05:06 06:31 9.21
57 330 SAINGERY MAGALI A1 1 01:05:08 06:31 9.21
58 86 MEURISSE ARTHUR SH 41 01:05:10 06:31 9.20
59 664 VAN DYCK THOMAS SH 42 01:05:48 06:35 9.12
60 139 MAMERE JACQUES V4 1 01:06:00 06:36 9.09
61 337 LOOP HAROLD SH 43 01:06:19 06:38 9.05
62 701 HEREMANS JORIS SH 44 01:06:19 06:38 9.05
63 733 DENIS DU PÉAGE VICTOIRE SD 4 01:06:35 06:40 9.01
64 84 DAVID MARTA FLORENCE SD 5 01:06:37 06:40 9.00
65 694 HOTTIAS DZVID SH 45 01:06:44 06:41 8.99
66 530 MACAIGNE QUENTIN SH 46 01:07:00 06:42 8.95
67 553 COLON STÉPHANE SH 47 01:07:08 06:43 8.94
68 429 DELHAUTEUR AMAURY SH 48 01:07:20 06:44 8.91
69 428 RENARD MICHAËL SH 49 01:07:37 06:46 8.87
70 97 ALEXE LUCIAN SH 50 01:07:46 06:47 8.85
71 627 SANZOT YANNICK SH 51 01:08:16 06:50 8.79
72 632 LEQUIVARD GREGORY V1 10 01:08:22 06:50 8.77
73 1139 DEMUYNCK DELPHINE SD 6 01:08:24 06:51 8.77
74 336 BAUDRY ISALINE SD 7 01:08:35 06:52 8.75
75 320 BASTIN FRANÇOIS SH 52 01:08:39 06:52 8.74
76 386 DE BRUIJN FRÉDÉRIC V1 11 01:08:49 06:53 8.72
77 1144 MICHEL EVE SD 8 01:08:56 06:54 8.70
78 781 RORIVE SAMC SH 53 01:09:03 06:54 8.69
79 882 MASSART ADRIEN SH 54 01:09:27 06:57 8.64
80 716 BAILY PIERRE SH 55 01:09:48 06:59 8.59
81 250 ROLAND LAURENCE A1 2 01:09:48 06:59 8.59
82 835 LACROIX ERIC V1 12 01:09:49 06:59 8.59
83 185 DELUSSU SÉBASTIEN SH 56 01:10:09 07:01 8.55
84 338 DETAL JOACHIM SH 57 01:10:19 07:02 8.53
85 464 NOLS RENAUD V1 13 01:10:21 07:02 8.53
86 450 VAUSE XAVIER SH 58 01:10:29 07:03 8.51
87 111 VAN OLDENEEL GARANCE SD 9 01:10:32 07:03 8.50
88 883 BERTRAND BENJAMIN SH 59 01:10:32 07:03 8.50
89 379 STASSART OLIVIER V1 14 01:10:53 07:05 8.46
90 224 DAVENNE JULIEN SH 60 01:11:18 07:08 8.41
91 380 STASSART FLORIANE SD 10 01:11:21 07:08 8.41
92 381 BOUCHAT PHILIPPE V1 15 01:11:22 07:08 8.41
93 225 BOURLEAU AMAURY SH 61 01:11:39 07:10 8.37
94 715 ARPIN JULIETTE SD 11 01:11:42 07:10 8.37
95 346 BONTE ALICE A1 3 01:12:00 07:12 8.33
96 275 MONVILLE BERNARD V2 3 01:12:19 07:14 8.29
97 630 GUIZZI THOMAS SH 62 01:12:21 07:14 8.29
98 990 DE JAEGHER SHANA SD 12 01:12:40 07:16 8.25
99 893 DEGLIM JULIEN SH 63 01:12:45 07:17 8.25
100 894 DARDENNE STEVE SH 64 01:12:45 07:17 8.25
101 370 BELOT RÉMI SH 65 01:12:47 07:17 8.24
102 369 GRAMME LISA SD 13 01:12:48 07:17 8.24
103 892 HENIN JEAN-YVES SH 66 01:12:49 07:17 8.24
104 909 ROMMELAERE AUGUSTIN SH 67 01:13:05 07:19 8.21
105 928 NOULARD HUBERT SH 68 01:13:19 07:20 8.18
106 778 NELEN KRISTIEN A1 4 01:13:44 07:23 8.14
107 406 WERY SIMON SH 69 01:13:44 07:23 8.14
108 874 THILL SIMON SH 70 01:13:56 07:24 8.11
109 875 ANGLADE AMANDINE SD 14 01:13:59 07:24 8.11
110 376 ALBAUT JEAN-FRANÇOIS V1 16 01:14:02 07:24 8.10
111 891 MEURS LÉONARD SH 71 01:14:06 07:25 8.10
112 931 BOLLE PAUL-ANDRÉ V3 1 01:14:07 07:25 8.09
113 955 GABRIEL CÉLINE SD 15 01:14:07 07:25 8.09
114 975 HUART SIMON SH 72 01:14:19 07:26 8.07
115 1129 HENKINBRANT PASCALE A1 5 01:14:21 07:26 8.07
116 522 COUCKE JOACHIM SH 73 01:14:23 07:26 8.06
117 520 COUCKE NICOLAS xxx   01:14:24 07:27 8.06
118 973 PIERMAN THOMAS SH 74 01:14:40 07:28 8.03
119 748 STASSE ANTOINE SH 75 01:14:53 07:29 8.01
120 749 DE PAUW MAXIME SH 76 01:14:55 07:30 8.01
121 529 WAUTHELET RENAUD SH 77 01:15:03 07:30 7.99
122 212 STROOBANTS BART V1 17 01:15:04 07:31 7.99
123 798 RADELET STÉPHANIE A1 6 01:15:07 07:31 7.99
124 401 BEECKMAN SIMON SH 78 01:15:12 07:31 7.98
125 1094 PEETERS OLIVIER V1 18 01:15:15 07:32 7.97
126 1084 PEETERS LAURENT V1 19 01:15:15 07:32 7.97
127 211 STROOBANTS TUUR SH 79 01:15:16 07:32 7.97
128 402 PIRON PATRICK SH 80 01:15:19 07:32 7.96
129 49 DOMINIQUE MARIE A1 7 01:15:37 07:34 7.93
130 795 COLOT CLEMENT SH 81 01:15:45 07:35 7.92
131 957 DANOIS ELODIE SD 16 01:15:52 07:35 7.91
132 750 DELVAUX MATHIEU SH 82 01:16:08 07:37 7.88
133 906 DACHELET CAROLINE A1 8 01:16:22 07:38 7.85
134 303 HENRIET LAURIE SD 17 01:16:26 07:39 7.85
135 280 NICOLAS LOIC SH 83 01:16:27 07:39 7.85
136 405 TEMMERMAN MAXIME SH 84 01:16:37 07:40 7.83
137 383 GUINOT YANN SH 85 01:16:45 07:41 7.82
138 1025 DRUGMAND GEOFFREY SH 86 01:17:00 07:42 7.79
139 449 KINOO CLÉMENTINE SH 87 01:17:01 07:42 7.79
140 800 VANDERBECQ SOPHIE A1 9 01:17:09 07:43 7.77
141 422 DEFALQUE GAËTAN SH 88 01:17:24 07:45 7.75
142 421 STORCK GÉRALDINE SD 18 01:17:27 07:45 7.74
143 887 SAMAIN VÉRONIQUE A1 10 01:17:43 07:46 7.72
144 905 PAQUET GÉRALDINE A1 11 01:18:02 07:48 7.69
145 51 LIBOTTE XAVIER SH 89 01:18:02 07:48 7.69
146 351 GOORMANS NATHALIE SD 19 01:18:04 07:49 7.68
147 974 MOURY GWENN SH 90 01:18:09 07:49 7.68
148 251 HASTIR SEVERINE A1 12 01:18:09 07:49 7.68
149 932 HARVENT VALÉRIE A2 1 01:18:33 07:51 7.64
150 382 DELHALLE CASIMIR SH 91 01:18:39 07:52 7.63
151 959 CRIPIAU GUILLAUME V1 20 01:18:42 07:52 7.62
152 152 SCAILLET FRANÇOIS SH 92 01:18:47 07:53 7.61
153 226 LÉONARD NOËL SH 93 01:18:47 07:53 7.61
154 720 BRIDOUX SOPHIE A1 13 01:18:48 07:53 7.61
155 509 LABOULLE LAURA SD 20 01:18:52 07:53 7.61
156 907 KURZ BASTIEN SH 94 01:19:09 07:55 7.58
157 227 LIEBENS LÉONARD V1 21 01:19:09 07:55 7.58
158 153 SCAILLET PHILIPPE V2 4 01:19:10 07:55 7.58
159 276 SÉLENNE LAURENCE A2 2 01:19:13 07:55 7.57
160 508 SPARMONT CINDY A1 14 01:19:20 07:56 7.56
161 1104 AMBROSI MARC V2 5 01:19:21 07:56 7.56
162 639 ROLAIN SABRINA A2 3 01:19:22 07:56 7.56
163 1105 KOKELBERG AMÉLIE A1 15 01:19:24 07:57 7.55
164 638 TIXHON AXEL V1 22 01:19:25 07:57 7.55
165 631 PAPART AURELIE SD 21 01:19:27 07:57 7.55
166 1069 VAN DEN ABEELE SANDRINE A1 16 01:19:30 07:57 7.55
167 258 FACCHINI GIANLUCA SH 95 01:19:31 07:57 7.54
168 307 DEBROUWER SERGE V3 2 01:19:32 07:57 7.54
169 348 LE LAY DELPHINE SD 22 01:19:33 07:57 7.54
170 414 TERWAGNE ALEXANDRE SH 96 01:19:33 07:57 7.54
171 415 NOËL CYRIL SH 97 01:19:35 07:58 7.54
172 105 JEANMART PATRICK V1 23 01:19:47 07:59 7.52
173 201 PERL FRÉDÉRIC V1 24 01:19:58 08:00 7.50
174 115 SANNEN MAARTEN SH 98 01:20:02 08:00 7.49
175 116 CRAPPE GAËLLE SD 23 01:20:03 08:00 7.49
176 198 LATTEUR ANNE A1 17 01:20:04 08:01 7.49
177 245 MISKO PATRICK V3 3 01:20:08 08:01 7.49
178 199 LÉONET BENOÎT V1 25 01:20:11 08:01 7.48
179 467 CHARLOT NICOLAS SH 99 01:20:13 08:01 7.48
180 558 STERCKX SYLVAIN SH 100 01:20:17 08:02 7.47
181 556 DEHON VALÉRIE SD 24 01:20:21 08:02 7.47
182 557 DUTERME ANNE-SOPHIE SD 25 01:20:23 08:02 7.46
183 390 RENARD JORDAN SH 101 01:20:26 08:03 7.46
184 391 VERSTAEN SÉBASTIEN SH 102 01:20:28 08:03 7.45
185 494 JEANMENNE LUDOVIC V1 26 01:20:28 08:03 7.45
186 355 RICOTTA ERALDO SH 103 01:20:31 08:03 7.45
187 356 TRULLEMANS MARIE SD 26 01:20:32 08:03 7.45
188 118 JACQUET MARC-ANTOINE SH 104 01:20:47 08:05 7.43
189 780 GASPARD JULIEN SH 105 01:21:02 08:06 7.40
190 940 MERTENS SARAH A1 18 01:21:11 08:07 7.39
191 365 PANIER ISA A2 4 01:21:42 08:10 7.34
192 1085 DEMAEREL MICHAEL SH 106 01:21:50 08:11 7.33
193 493 VESELKO GREGORY SH 107 01:21:59 08:12 7.32
194 744 WATHELET VANESSA A1 19 01:22:07 08:13 7.30
195 154 VANMEERBEEK GRÉGORY V1 27 01:22:13 08:13 7.30
196 1135 DUJARDIN MAXIME V1 28 01:22:15 08:14 7.29
197 1118 MERCIER AMANDINE SD 27 01:22:16 08:14 7.29
198 1009 JOLIE ALINE SD 28 01:22:17 08:14 7.29
199 7 PESCATORI CÉDRIC SH 108 01:22:18 08:14 7.29
200 1124 COGNIAUX CHRISTOPHE V1 29 01:22:20 08:14 7.29
201 326 KNAEPKENS KRIS SH 109 01:22:22 08:14 7.28
202 1117 MERCIER DOMINIQUE V2 6 01:22:33 08:15 7.27
203 563 DELRUE SEBASTIEN V1 30 01:22:38 08:16 7.26
204 1119 MERCIER NADÈGE SD 29 01:22:39 08:16 7.26
205 324 KOZAKIEWICZ ELZBIETA SD 30 01:22:41 08:16 7.25
206 792 SILVESTRE FRANCK V2 7 01:23:03 08:18 7.22
207 144 BERTON JEAN-MARC V3 4 01:23:03 08:18 7.22
208 540 WIENDERS AUGUSTINE SD 31 01:23:09 08:19 7.21
209 142 ALBICOCCO DAVID V1 31 01:23:11 08:19 7.21
210 985 MORREN THIERRY SH 110 01:23:31 08:21 7.18
211 641 BRONKART LYDIA A1 20 01:23:37 08:22 7.17
212 1044 DE VLEESCHOUWER PERRINE SD 32 01:23:50 08:23 7.16
213 75 BRIHAYE VALÉRIE A2 5 01:23:55 08:24 7.15
214 986 DECELLE MARIE-JUSTINE SD 33 01:23:56 08:24 7.15
215 569 MATHIEU AMELIE SD 34 01:24:05 08:25 7.13
216 628 SCHNEIDER NADINE A1 21 01:24:08 08:25 7.13
217 319 BOUTON ALAIN V2 8 01:24:22 08:26 7.11
218 1067 JANSSEN AMAURY V1 32 01:24:22 08:26 7.11
219 788 JOSSA JEAN-JACQUES V2 9 01:24:29 08:27 7.10
220 924 LE CLOIREC DELPHINE A1 22 01:24:33 08:27 7.09
221 33 ROMAIN MAES SH 111 01:24:34 08:28 7.09
222 34 CAMELI CEDRIC V1 33 01:24:34 08:28 7.09
223 925 ENTHOVEN CHARLOTTE A1 23 01:24:36 08:28 7.09
224 480 LENOBLE JACQUES SH 112 01:24:41 08:28 7.08
225 1149 VAN DEN BROECK CHRISTOPHE V1 34 01:24:43 08:28 7.08
226 395 GENGLER ALICE SD 35 01:24:45 08:29 7.08
227 848 BAILO VINCENT V1 35 01:24:51 08:29 7.07
228 784 DEFRESNE JEROME SH 113 01:24:57 08:30 7.06
229 782 GARIGLIANY JONATHAN SH 114 01:25:00 08:30 7.06
230 698 SAUDEMONT HUGUES V1 36 01:25:09 08:31 7.04
231 213 LÉCHAUDÉ FRÉDÉRIC V2 10 01:25:15 08:32 7.04
232 1068 DELACROIX EMILIE A1 24 01:25:17 08:32 7.03
233 32 CHARLIER ISALEEN SD 36 01:25:27 08:33 7.02
234 366 ROMAIN JÉRÔME SH 115 01:25:28 08:33 7.02
235 1021 LESENFANTS MARIE SD 37 01:25:28 08:33 7.02
236 697 GILLAIN JEAN-YVES V1 37 01:25:30 08:33 7.02
237 358 JOUAN MARIE SD 38 01:25:30 08:33 7.02
238 783 BRIOT KEVIN SH 116 01:25:32 08:33 7.01
239 1113 MOINY CANDY SD 39 01:25:35 08:34 7.01
240 964 BROERS CLOÉ SD 40 01:25:42 08:34 7.00
241 968 NAMÈCHE CÉLINE SD 41 01:25:42 08:34 7.00
242 971 WALTZING FRANÇOIS SH 117 01:25:50 08:35 6.99
243 846 QUINZIN MAXENCE SH 118 01:25:55 08:36 6.98
244 867 LECOCQ CEDRIC V1 38 01:26:08 08:37 6.96
245 866 CAVALLARO ANTONINO V1 39 01:26:13 08:37 6.96
246 629 COSSIN AURELIE A1 25 01:26:19 08:38 6.95
247 1150 MOULIGNEAUX THOMAS SH 119 01:26:41 08:40 6.92
248 847 DE WAEGENAERE NICOLAS SH 120 01:26:42 08:40 6.92
249 259 TURTURICI MAURO SH 121 01:26:52 08:41 6.91
250 387 DELVOSAL DELPHINE A1 26 01:26:59 08:42 6.90
251 988 PASSANI BETINA SD 42 01:26:59 08:42 6.90
252 388 DELOGNE MAGALI A1 27 01:27:00 08:42 6.89
253 950 XXX xxx   01:27:04 08:43 6.89
254 951 AERTS SOPHIE SD 43 01:27:05 08:43 6.89
255 328 DE BRAUWER THOMAS V1 40 01:27:31 08:45 6.85
256 113 BRANDERS LAURA SD 44 01:27:45 08:47 6.84
257 114 BLOUQUIAUX CHRISTELLE SD 45 01:27:46 08:47 6.83
258 510 BAUDOIN DAPHNÉ A1 28 01:27:48 08:47 6.83
259 603 LEYN DONAVAN SH 122 01:27:56 08:48 6.82
260 583 ORTMANS SABINE SD 46 01:28:02 08:48 6.81
261 327 LAURENT VALÉRIE A1 29 01:28:04 08:49 6.81
262 836 EVRARD DAMIEN V1 41 01:28:07 08:49 6.81
263 615 DECLERCK ELINE SD 47 01:28:12 08:49 6.80
264 856 DUBUISSON MARIE SD 48 01:28:12 08:49 6.80
265 818 LAFFINEUR AMAURY SH 123 01:28:18 08:50 6.79
266 229 DESCAMPE ALEXIS SH 124 01:28:33 08:51 6.77
267 230 TOLLENAERE SEBASTIEN V1 42 01:28:36 08:52 6.77
268 837 NIHOUL PIERRE-LOUIS V1 43 01:28:39 08:52 6.77
269 396 VAN DE VELDE FRANÇOISE A2 6 01:28:43 08:52 6.76
270 910 DANOIS SANDRINE SD 49 01:28:56 08:54 6.74
271 742 SEKULOVIC SABA SD 50 01:28:58 08:54 6.74
272 739 LOPEZ DANIEL SH 125 01:28:59 08:54 6.74
273 448 GOOR CATHERINE A1 30 01:29:03 08:54 6.74
274 588 HUBERLAND JEAN-MARC V1 44 01:29:17 08:56 6.72
275 927 HALLET CAROLINE SD 51 01:29:19 08:56 6.72
276 50 SPILLIAERT JESSICA A1 31 01:29:27 08:57 6.71
277 137 XXX xxx   01:29:36 08:58 6.69
278 138 IANNI SABRINA A1 32 01:29:42 08:58 6.69
279 342 DELBECQUE FREDERIC V2 11 01:29:46 08:59 6.68
280 1090 JORDANT BENOIT V2 12 01:29:52 08:59 6.67
281 384 LANI JEAN MARIE V3 5 01:30:02 09:00 6.66
282 15 BOEUR EMILIE SD 52 01:30:09 09:01 6.65
283 17 BENOOT ELLEN SD 53 01:30:13 09:01 6.65
284 318 BONNET ANAÏS SD 54 01:30:23 09:02 6.64
285 109 HENRY RENAUD SH 126 01:30:56 09:06 6.60
286 236 HARMEGNIES MAITE SD 55 01:31:09 09:07 6.58
287 248 MASQUELIER OLIVIER V1 45 01:31:09 09:07 6.58
288 419 LECLERE ARTHUR SH 127 01:31:10 09:07 6.58
289 374 DUBUS FLORENT SH 128 01:31:26 09:09 6.56
290 375 WAUTELET CHARLOTTE SD 56 01:31:26 09:09 6.56
291 110 JANNE D’OTHEE AXELLE A2 7 01:31:35 09:10 6.55
292 141 BARBETTE SOPHIE SD 57 01:31:40 09:10 6.54
293 418 GARNIER JULIETTE SD 58 01:31:49 09:11 6.53
294 1134 FEYERS DOROTHÉE SH 129 01:31:53 09:11 6.53
295 490 ROYAUX RODRIGUE V1 46 01:32:06 09:13 6.51
296 1096 KLEINGELD JAN SH 130 01:32:07 09:13 6.51
297 295 LOUIS PHILIPPE V2 13 01:32:51 09:17 6.46
298 255 FLAHAUX TANGUY V1 47 01:33:13 09:19 6.43
299 516 LEMPEREUR GRÉGORY V1 48 01:33:38 09:22 6.41
300 521 COUCKE TRISTAN SH 131 01:33:39 09:22 6.41
301 94 BENEDEK ILDIKO SD 59 01:33:44 09:23 6.40
302 466 XXX xxx   01:34:04 09:25 6.38
303 517 STÉPHANIE MOUSNY SD 60 01:34:08 09:25 6.37
304 125 STASSIN WIVINE SD 61 01:34:11 09:25 6.37
305 124 GOFFINET EMMANUEL SH 132 01:34:16 09:26 6.36
306 128 HANOTIAUX DAVID SH 133 01:34:17 09:26 6.36
307 1043 DE VLEESCHOUWER ORIANE SD 62 01:34:18 09:26 6.36
308 123 SCAILTEUR CYNTHIA SD 63 01:34:22 09:26 6.36
309 626 NOËL CHRISTELLE A1 33 01:34:58 09:30 6.32
310 525 XXX xxx   01:35:45 09:35 6.26
311 524 KASTOUN OLIVIER V1 49 01:35:46 09:35 6.26
312 621 FERNEZ MARIE SD 64 01:36:02 09:36 6.25
313 623 NIHOUL MARIE SD 65 01:36:03 09:36 6.25
314 622 DELFORGE AMANDINE SD 66 01:36:04 09:37 6.24
315 652 MONFORTI ANDRÉA SD 67 01:36:04 09:37 6.24
316 791 PIRET LOUIS SH 134 01:36:09 09:37 6.24
317 913 XXX xxx   01:36:12 09:37 6.24
318 796 BURNOTTE ELISABETH A2 8 01:36:23 09:38 6.22
319 797 VAN DEN EEDE NOELLE A2 9 01:36:25 09:39 6.22
320 72 XXX xxx   01:36:28 09:39 6.22
321 71 NOIRET CORALIE SD 68 01:36:31 09:39 6.21
322 291 GOEDVRIENDT CLAUDE V3 6 01:37:13 09:43 6.17
323 790 HENDRICK ALBANE SD 69 01:37:19 09:44 6.16
324 656 GEORGES ANGÉLIQUE A1 34 01:37:43 09:46 6.14
325 1125 WILMET ALEXANDRA SD 70 01:37:52 09:47 6.13
326 299 BOSERET MICHAEL SH 135 01:38:00 09:48 6.12
327 282 CHEVALIER JONATHAN SH 136 01:38:06 09:49 6.11
328 298 WINSCHERMAN ADRIEN SH 137 01:38:07 09:49 6.11
329 315 LASTELLE EMILIE SD 71 01:38:10 09:49 6.11
330 132 REYSER VINCIANE A2 10 01:38:10 09:49 6.11
331 314 BULINCKX QUENTIN SH 138 01:38:13 09:49 6.11
332 972 BOUVIER AMELIE SD 72 01:38:14 09:50 6.11
333 657 MEURISSE LAURENT SH 139 01:38:16 09:50 6.10
334 281 CHEVALIER JONATHAN SH 140 01:38:19 09:50 6.10
335 300 DELVAUX LAURELINE SD 73 01:38:19 09:50 6.10
336 242 STEVENS ADELINE SD 74 01:38:26 09:51 6.09
337 241 PIRSON JULIE SD 75 01:38:32 09:51 6.09
338 129 WEILER ISABELLE A2 11 01:38:32 09:51 6.09
339 130 BAVAY MICHEL V2 14 01:38:33 09:51 6.09
340 987 HENRY MAXIME SH 141 01:39:12 09:55 6.05
341 1159 DE LA KETHULLE CHARLINE SD 76 01:39:14 09:56 6.04
342 561 HAUTFENNE FRANÇOISE A1 35 01:39:30 09:57 6.03
343 562 MONSEUR PERRINE SD 77 01:39:45 09:59 6.01
344 1045 VANSPAUWEN ROB V1 50 01:40:40 10:04 5.96
345 718 DELFOSSE MARIE-LAURE SD 78 01:41:01 10:06 5.94
346 719 PIRET DEBORAH SD 79 01:41:04 10:07 5.94
347 345 DENEUS WILLIQUET CHRISTINE A2 12 01:41:14 10:08 5.93
348 888 WANSON LAURENCE A2 13 01:41:25 10:09 5.91
349 889 NAGY MARIANNE A2 14 01:41:29 10:09 5.91
350 344 WILLIQUET OPHÉLIE SD 80 01:41:34 10:10 5.91
351 936 HUBINON ALINE SD 81 01:41:42 10:10 5.90
352 981 STRYCEK MATHILDE SD 82 01:41:44 10:11 5.90
353 73 MOREAU LORRAINE A1 36 01:41:44 10:11 5.90
354 960 DE MAERTELEIRE ISABELLE A2 15 01:41:46 10:11 5.89
355 52 LAROCHE CHARLOTTE A1 37 01:41:46 10:11 5.89
356 980 ROUSSEAUX SABINE A2 16 01:41:48 10:11 5.89
357 1081 HOUBOTTE MELISSA SD 83 01:42:41 10:16 5.84
358 1082 XXX xxx   01:42:43 10:16 5.84
359 511 SADOSKI MARIE SD 84 01:42:46 10:17 5.84
360 150 JANTON STEPHANIE A1 38 01:42:52 10:17 5.83
361 512 BLONDIAUX ADELINE A1 39 01:42:59 10:18 5.82
362 343 DUPONT DANIELLE A2 17 01:43:44 10:23 5.78
363 911 DAEMS CHRISTOPHE V1 51 01:43:53 10:23 5.77
364 220 MAQUET PHILIPPE V1 52 01:44:57 10:30 5.72
365 671 REMY EMMANUELLE SD 85 01:45:29 10:33 5.69
366 672 VAN HAUTE PAULINE SD 86 01:45:30 10:33 5.69
367 190 HENRY JEAN-FRANCOIS V2 15 01:45:40 10:34 5.68
368 700 XXX xxx   01:45:46 10:35 5.67
369 881 DENIL NATHALIE V1 53 01:46:18 10:38 5.64
370 901 CAP DELPHINE A1 40 01:46:25 10:39 5.64
371 1115 JAUMOT ALEXE SD 87 01:47:05 10:43 5.60
372 454 XXX xxx   01:47:06 10:43 5.60
373 643 PÉTERS MARIE-JULIE SD 88 01:47:17 10:44 5.59
374 647 HAURET CLÉMENTINE SD 89 01:47:18 10:44 5.59
375 591 XXX xxx   01:47:23 10:44 5.59
376 404 PERDONCIN DOMINIQUE V3 7 01:47:24 10:45 5.59
377 958 VAN DE WALLE LAURIANE SH 142 01:47:44 10:47 5.57
378 403 BLAVIER DOMINIQUE A3 1 01:47:50 10:47 5.56
379 962 LEGRAND JULIE A1 41 01:48:02 10:48 5.55
380 930 WERTZ FLORENCE A1 42 01:48:10 10:49 5.55
381 956 BRION KATY A1 43 01:48:13 10:49 5.54
382 935 JOLY EMMA A2 18 01:48:35 10:52 5.52
383 912 GUSTIN CLAIRE SD 90 01:48:36 10:52 5.52
384 219 DEPREZ ANNE-CATHERINE A1 44 01:49:12 10:55 5.49
385 221 COLLIGNON MAGALI A1 45 01:49:13 10:55 5.49
386 646 BLANCO ALVAREZ SYLVAIN SH 143 01:49:40 10:58 5.47
387 81 ROLAND PHILIPPE V2 16 01:50:07 11:01 5.45
388 69 COLSON BÉNÉDICTE A1 46 01:50:15 11:02 5.44
389 393 STEVENS DAVID V1 54 01:50:29 11:03 5.43
390 246 REGIBO MORGANE SD 91 01:52:07 11:13 5.35
391 122 DE VLEESCHOUWER PERRINE SD 92 01:53:25 11:21 5.29
392 1099 BARY FIORELLA SD 93 01:55:24 11:33 5.20
393 80 ROLAND CORALIE SD 94 01:55:40 11:34 5.19
394 79 ROLAND AMELIE SD 95 01:55:50 11:35 5.18
395 1097 LAYIOS NATHALIE A2 19 01:55:54 11:36 5.18
396 549 FISSIAUX THIERRY V3 8 01:56:55 11:42 5.13
397 1527 XXX xxx   01:57:24 11:45 5.11
398 1007 XXX xxx   01:59:08 11:55 5.04
399 908 XXX xxx   01:59:18 11:56 5.03
400 678 NOTREDAME AMÉLIE SD 96 01:59:30 11:57 5.02
401 677 DUTRIEUX ADELINE SD 97 02:01:33 12:09 4.93
402 926 LOGIST GAËTAN SH 144 02:03:05 12:19 4.87
403 532 GENEVROIS FREDERIC V2 17 02:03:13 12:19 4.87
404 548 MONTEIRO -TAYLOR CLAUDINE A3 2 02:03:39 12:22 4.85
405 921 DE WACHTER JEAN-FRANÇOIS V2 18 02:04:40 12:28 4.81
406 151 GODFRIN GENEVIÈVE A2 20 02:05:58 12:36 4.76
407 173 XXX xxx   02:08:28 12:51 4.67
408 302 BAES HANS V2 19 02:09:29 12:57 4.63
409 606 DELSTANCHE NATHALIE A1 47 02:09:32 12:57 4.63
410 301 PANINA MARIA A1 48 02:09:37 12:58 4.63
411 608 SOSSON ANOUK A1 49 02:09:38 12:58 4.63
412 607 JANSSEN ADELINE SD 98 02:09:38 12:58 4.63
413 208 DARDENNE CAROLINE A1 50 02:10:06 13:01 4.61
414 1507 XXX xxx   02:11:07 13:07 4.57
415 686 MALENGREAUX LORENA SD 99 02:11:43 13:11 4.55
416 687 PROTTI LAURA SD 100 02:11:44 13:11 4.55
417 1077 LACROIX DELPHINE A1 51 02:12:23 13:15 4.53
418 22 LABRUNE MARIE NOELLE SD 101 02:12:26 13:15 4.53
419 1078 GREGOIRE SAMUEL V1 55 02:13:39 13:22 4.49
420 146 XXX xxx   02:16:14 13:38 4.40
421 145 XXX xxx   02:16:25 13:39 4.40
422 689 XXX xxx   02:17:09 13:43 4.37
423 264 PIERMONT PATRICIA A1 52 02:20:09 14:01 4.28
424 1083 HARDY MAHINA SD 102 02:20:53 14:06 4.26
425 1122 NICOLAY NATHALIE A2 21 02:20:56 14:06 4.26
426 1123 GEREMI STÉPHANE V2 20 02:20:56 14:06 4.26
427 1111 WOLKOFF TANIA A1 53 02:22:30 14:15 4.21
428 1108 BAR MICHEL V1 56 02:22:30 14:15 4.21
429 312 PETIT MICHAËLE A1 54 02:25:01 14:30 4.14
430 469 LABBE CHRISTIAN V4 2 02:25:51 14:35 4.11
431 377 RICHE CHRISTOPHE V1 57 02:26:29 14:39 4.09
432 378 RICHE LAURENCE A1 55 02:26:32 14:39 4.09
433 533 LACHAPELLE LAURENT V1 58 02:30:54 15:06 3.98
434 1064 DUSSART MARC V2 21 02:31:06 15:07 3.97
435 294 JUINO MURIELLE A2 22 02:31:32 15:09 3.96
436 284 JOVENEAU ANNE-FRANÇOISE A2 23 02:33:57 15:24 3.90
437 288 DELBRUYERE PASCAL V2 22 02:42:34 16:16 3.69
438 560 GILOT ANNE-THÉRÈSE A1 56 02:43:20 16:20 3.67
439 1017 VERBEURE EVELIEN SD 103 02:52:46 17:17 3.47
440 457 DEGREVE ERWIN V2 23 02:58:22 17:50 3.36
441 458 FASTENAEKELS LINDA A2 24 02:58:24 17:51 3.36
442 954 PEGORARO ROBERTO V3 9 03:05:19 18:32 3.24
443 953 GINGILLINO CLAUDIA A3 3 03:05:25 18:33 3.24
444 929 DE MARCO GIUSEPPE V3 10 03:05:29 18:33 3.23
445 947 XXX xxx   03:07:02 18:42 3.21
446 946 XXX xxx   03:07:03 18:43 3.21
447 1087 MILTENBERGER JOSIANE V3 11 03:40:47 22:05 2.72
448 1086 PRÉGARDIEN PIERRE V3 12 03:42:06 22:13 2.70